Regional Weather Roundup
Issued by NWS Kansas City/Pleasant Hill, MO

Home | Current Version | Previous Version | Text Only | Print | Product List | Glossary On
Versions: 1 2 3 4 5 6 7 8 9 10 11 12 13 14 15 16 17 18 19 20 21 22 23 24 25 26 27
000
ASUS43 KEAX 230210
RWREAX

WEATHER ROUNDUP FOR EASTERN KANSAS AND NORTHWEST MISSOURI
NATIONAL WEATHER SERVICE KANSAS CITY/PLEASANT HILL MO
800 PM CST WED FEB 22 2017

KSZ040-057-103>105-MOZ028-029-037-043-230300-
...KANSAS CITY METROPOLITAN AREA...

CITY           SKY/WX    TMP DP  RH WIND       PRES   REMARKS
K.C. INTL      MOCLDY    64  35  34 NW8       29.66S
K.C. DOWNTOWN  PTCLDY    64  35  34 CALM      29.65R
LEES SUMMIT    PTCLDY    66  37  34 SW3       29.67R
OLATHE - IXD   MOCLDY    61  36  39 W3        29.68R
OLATHE - OJC   MOCLDY    61  36  39 CALM      29.67R
LAWRENCE       PTCLDY    60  35  39 NW6       29.67R

$$

MOZ001>008-011>017-020>025-030>033-038>040-044>046-053-054-230300-
...NORTHERN AND CENTRAL MISSOURI...

CITY           SKY/WX    TMP DP  RH WIND       PRES   REMARKS
ST. JOSEPH     CLEAR     50  36  58 N9        29.68R
WARRENSBURG    CLOUDY    63  45  51 S7        29.66R
WHITEMAN AFB   PTCLDY    59  45  58 SW10      29.66S
CLINTON        PTCLDY    64  43  45 S7        29.68S
SEDALIA        PTCLDY    60  47  61 S10       29.68F
WARSAW         NOT AVBL
CHILLICOTHE      N/A     52  37  56 CALM      29.68R
KIRKSVILLE     CLEAR     55  44  66 CALM      29.68R

$$

MOZ041-047>049-056>058-063>065-088>090-097-230300-
...EASTERN AND SOUTHERN MISSOURI...

CITY           SKY/WX    TMP DP  RH WIND       PRES   REMARKS
ST. LOUIS INTL PTCLDY    69  53  56 S14       29.70R
SPIRIT OF STL  CLEAR     67  55  65 S12G20    29.69R
COLUMBIA       PTCLDY    59  53  80 S7        29.69F
JEFFERSON CITY CLEAR     56  52  86 CALM      29.69S
ROLLA          CLEAR     61  53  75 S14       29.71S
OSAGE BEACH    PTCLDY    64  51  62 S5        29.71S
SPRINGFIELD    CLEAR     60  53  77 SE9       29.73R
BRANSON        PTCLDY    59  55  88 SE7       29.76R
JOPLIN         PTCLDY    65  43  44 S5        29.72S
WEST PLAINS    CLEAR     57  54  89 S5        29.79S

$$

IAZ060-094-KSZ022-034>040-054-083-096-NEZ052-066-093-230300-
...KANSAS...SOUTHEAST NEBRASKA AND IOWA...

CITY           SKY/WX    TMP DP  RH WIND       PRES   REMARKS
TOPEKA         PTCLDY    56  41  57 CALM      29.67R
MANHATTAN      MOCLDY    55  39  54 SW3       29.69R
EMPORIA        PTCLDY    64  37  36 W5        29.69R
CHANUTE        CLEAR     60  41  49 S7        29.69R
WICHITA        PTCLDY    58  47  66 S3        29.69S
OMAHA          CLEAR     55  35  47 N13       29.74R
LINCOLN        CLEAR     49  34  56 N9        29.75R
FALLS CITY     CLEAR     60  40  47 N5        29.69R
LAMONI         CLEAR     58  40  51 NW6       29.69R
DES MOINES     CLEAR     59  42  53 NW9       29.70R

$$





USA.gov is the U.S. government's official web portal to all federal, state and local government web resources and services.